| time (UTC) | temp C | wind direction | speed KPH | gust KPH | rain 1hr cm | rain 24hr cm | rain mn cm | humidity % | barometer mb |
| 20260506051014 | 18 | 288 | 1.6 | 11.3 | 0.00 | 0.58 | 0.36 | 50 | 1015.2 |
| 20260506050530 | 18 | 285 | 1.6 | 11.3 | 0.00 | 0.58 | 0.36 | 50 | 1015.2 |
| 20260506045014 | 18 | 292 | 1.6 | 6.4 | 0.00 | 0.66 | 0.36 | 50 | 1014.9 |
| 20260506044530 | 18 | 281 | 0.0 | 9.7 | 0.00 | 0.66 | 0.36 | 50 | 1014.9 |
| 20260506044026 | 18 | 277 | 3.2 | 11.3 | 0.00 | 0.66 | 0.36 | 49 | 1014.8 |
| 20260506043525 | 18 | 265 | 4.8 | 12.9 | 0.00 | 0.66 | 0.36 | 48 | 1014.8 |
| 20260506043021 | 18 | 289 | 4.8 | 12.9 | 0.00 | 0.66 | 0.36 | 48 | 1014.8 |
| 20260506042517 | 18 | 317 | 3.2 | 8.0 | 0.00 | 0.66 | 0.36 | 48 | 1014.8 |
| 20260506042033 | 18 | 339 | 1.6 | 4.8 | 0.00 | 0.66 | 0.36 | 47 | 1014.7 |
| 20260506041528 | 18 | 294 | 0.0 | 16.1 | 0.00 | 0.66 | 0.36 | 46 | 1014.6 |
| 20260506041024 | 18 | 293 | 4.8 | 16.1 | 0.00 | 0.66 | 0.36 | 45 | 1014.4 |
| 20260506040520 | 18 | 227 | 4.8 | 14.5 | 0.00 | 0.66 | 0.36 | 45 | 1014.2 |
| 20260506040031 | 18 | 269 | 4.8 | 14.5 | 0.00 | 0.66 | 0.36 | 45 | 1013.9 |
| 20260506035532 | 18 | 229 | 6.4 | 14.5 | 0.00 | 0.69 | 0.36 | 45 | 1013.8 |
| 20260506035028 | 19 | 251 | 6.4 | 17.7 | 0.00 | 0.69 | 0.36 | 45 | 1013.9 |
| 20260506034524 | 19 | 270 | 8.0 | 16.1 | 0.00 | 0.69 | 0.36 | 44 | 1013.8 |
| 20260506034020 | 19 | 240 | 4.8 | 17.7 | 0.00 | 0.69 | 0.36 | 44 | 1013.8 |
| 20260506033515 | 19 | 244 | 4.8 | 22.5 | 0.00 | 0.69 | 0.36 | 43 | 1013.7 |
| 20260506033031 | 19 | 262 | 9.7 | 22.5 | 0.00 | 0.69 | 0.36 | 42 | 1013.6 |
| 20260506032531 | 19 | 264 | 8.0 | 20.9 | 0.00 | 0.69 | 0.36 | 42 | 1013.5 |
| 20260506032027 | 19 | 242 | 6.4 | 20.9 | 0.00 | 0.69 | 0.36 | 40 | 1013.4 |
| 20260506031522 | 19 | 275 | 3.2 | 16.1 | 0.00 | 0.69 | 0.36 | 37 | 1013.4 |
| 20260506031018 | 20 | 274 | 4.8 | 17.7 | 0.00 | 0.69 | 0.36 | 36 | 1013.3 |
| 20260506030515 | 19 | 257 | 8.0 | 17.7 | 0.00 | 0.69 | 0.36 | 36 | 1013.3 |
| 20260506030042 | 19 | 266 | 8.0 | 16.1 | 0.00 | 0.69 | 0.36 | 36 | 1013.3 |
| 20260506025525 | 20 | 262 | 1.6 | 14.5 | 0.00 | 0.71 | 0.36 | 36 | 1013.2 |
| 20260506025024 | 20 | 277 | 4.8 | 12.9 | 0.00 | 0.71 | 0.36 | 35 | 1013.0 |
| 20260506024520 | 20 | 262 | 4.8 | 14.5 | 0.00 | 0.71 | 0.36 | 35 | 1013.1 |
| 20260506024016 | 20 | 271 | 6.4 | 14.5 | 0.00 | 0.71 | 0.36 | 34 | 1012.9 |
| 20260506023532 | 20 | 270 | 1.6 | 12.9 | 0.00 | 0.71 | 0.36 | 34 | 1012.7 |
| 20260506023027 | 20 | 267 | 3.2 | 14.5 | 0.00 | 0.71 | 0.36 | 33 | 1012.7 |
| 20260506022523 | 20 | 276 | 3.2 | 17.7 | 0.00 | 0.71 | 0.36 | 31 | 1012.6 |
| 20260506022019 | 20 | 279 | 6.4 | 17.7 | 0.00 | 0.71 | 0.36 | 31 | 1012.5 |
| 20260506021518 | 20 | 273 | 4.8 | 22.5 | 0.00 | 0.71 | 0.36 | 31 | 1012.2 |
| 20260506021014 | 20 | 273 | 9.7 | 22.5 | 0.00 | 0.71 | 0.36 | 31 | 1012.1 |
| 20260506020531 | 20 | 292 | 8.0 | 19.3 | 0.00 | 0.71 | 0.36 | 30 | 1012.0 |
| 20260506020039 | 21 | 279 | 6.4 | 19.3 | 0.00 | 0.71 | 0.36 | 30 | 1011.9 |
| 20260506015520 | 21 | 281 | 4.8 | 20.9 | 0.00 | 0.76 | 0.36 | 33 | 1011.9 |
| 20260506015015 | 21 | 250 | 4.8 | 17.7 | 0.00 | 0.76 | 0.36 | 31 | 1011.9 |
| 20260506014531 | 21 | 226 | 8.0 | 20.9 | 0.00 | 0.76 | 0.36 | 31 | 1011.9 |
| 20260506014027 | 21 | 263 | 9.7 | 22.5 | 0.00 | 0.76 | 0.36 | 31 | 1011.9 |
| 20260506013527 | 21 | 258 | 11.3 | 25.7 | 0.00 | 0.76 | 0.36 | 30 | 1011.8 |
| 20260506013022 | 21 | 277 | 9.7 | 25.7 | 0.00 | 0.76 | 0.36 | 31 | 1011.8 |
| 20260506012518 | 21 | 286 | 12.9 | 25.7 | 0.00 | 0.76 | 0.36 | 32 | 1011.8 |
| 20260506012014 | 21 | 255 | 9.7 | 20.9 | 0.00 | 0.76 | 0.36 | 32 | 1011.8 |
| 20260506011530 | 21 | 280 | 11.3 | 22.5 | 0.00 | 0.76 | 0.36 | 32 | 1011.8 |
| 20260506011026 | 21 | 285 | 11.3 | 27.4 | 0.00 | 0.76 | 0.36 | 32 | 1011.8 |
| 20260506010521 | 21 | 267 | 12.9 | 27.4 | 0.00 | 0.76 | 0.36 | 32 | 1011.7 |
| 20260506010032 | 22 | 274 | 14.5 | 24.1 | 0.00 | 0.76 | 0.36 | 32 | 1011.6 |
| 20260506005514 | 22 | 241 | 8.0 | 20.9 | 0.00 | 0.76 | 0.36 | 31 | 1011.7 |
| 20260506005029 | 22 | 250 | 4.8 | 20.9 | 0.00 | 0.76 | 0.36 | 31 | 1011.6 |
| 20260506004525 | 22 | 266 | 12.9 | 22.5 | 0.00 | 0.76 | 0.36 | 30 | 1011.5 |
| 20260506004021 | 22 | 269 | 12.9 | 24.1 | 0.00 | 0.76 | 0.36 | 30 | 1011.4 |
| 20260506003517 | 22 | 282 | 8.0 | 24.1 | 0.00 | 0.76 | 0.36 | 29 | 1011.4 |
| 20260506003013 | 22 | 250 | 11.3 | 22.5 | 0.00 | 0.76 | 0.36 | 29 | 1011.4 |
| 20260506002513 | 23 | 248 | 14.5 | 24.1 | 0.00 | 0.76 | 0.36 | 29 | 1011.4 |
| 20260506002029 | 23 | 256 | 12.9 | 27.4 | 0.00 | 0.76 | 0.36 | 27 | 1011.4 |
| 20260506001525 | 23 | 284 | 9.7 | 27.4 | 0.00 | 0.76 | 0.36 | 28 | 1011.4 |
| 20260506001022 | 23 | 250 | 11.3 | 24.1 | 0.00 | 0.76 | 0.36 | 27 | 1011.3 |
| 20260506000517 | 23 | 227 | 9.7 | 24.1 | 0.00 | 0.76 | 0.36 | 27 | 1011.3 |
| 20260506000045 | 24 | 290 | 9.7 | 25.7 | 0.00 | 0.76 | 0.36 | 28 | 1011.2 |
| 20260505235526 | 24 | 277 | 12.9 | 25.7 | 0.00 | 0.76 | 0.36 | 26 | 1011.2 |
| 20260505235026 | 24 | 269 | 12.9 | 25.7 | 0.00 | 0.76 | 0.36 | 26 | 1011.0 |
| 20260505234522 | 25 | 266 | 8.0 | 19.3 | 0.00 | 0.76 | 0.36 | 26 | 1011.0 |
| 20260505234018 | 23 | 232 | 8.0 | 25.7 | 0.00 | 0.76 | 0.36 | 26 | 1010.9 |
| 20260505233513 | 23 | 280 | 9.7 | 25.7 | 0.00 | 0.76 | 0.36 | 25 | 1010.9 |
| 20260505233029 | 24 | 225 | 9.7 | 25.7 | 0.00 | 0.76 | 0.36 | 25 | 1010.9 |
| 20260505232525 | 25 | 252 | 9.7 | 20.9 | 0.00 | 0.76 | 0.36 | 26 | 1011.0 |
| 20260505232021 | 24 | 262 | 9.7 | 20.9 | 0.00 | 0.76 | 0.36 | 26 | 1010.9 |
| 20260505231521 | 25 | 268 | 9.7 | 20.9 | 0.00 | 0.76 | 0.36 | 26 | 1011.0 |
| 20260505231017 | 25 | 219 | 8.0 | 24.1 | 0.00 | 0.76 | 0.36 | 24 | 1010.9 |
| 20260505230532 | 25 | 233 | 14.5 | 22.5 | 0.00 | 0.76 | 0.36 | 24 | 1011.0 |
| 20260505230040 | 24 | 258 | 9.7 | 24.1 | 0.00 | 0.76 | 0.36 | 25 | 1011.0 |
| 20260505225521 | 25 | 246 | 14.5 | 30.6 | 0.00 | 0.76 | 0.36 | 24 | 1011.0 |
| 20260505225016 | 25 | 262 | 11.3 | 30.6 | 0.00 | 0.76 | 0.36 | 26 | 1011.0 |
| 20260505224532 | 23 | 227 | 11.3 | 25.7 | 0.00 | 0.76 | 0.36 | 27 | 1010.9 |
| 20260505224027 | 24 | 226 | 12.9 | 25.7 | 0.00 | 0.76 | 0.36 | 25 | 1011.0 |
| 20260505223527 | 25 | 242 | 9.7 | 22.5 | 0.00 | 0.76 | 0.36 | 26 | 1011.0 |
| 20260505223023 | 24 | 205 | 12.9 | 22.5 | 0.00 | 0.76 | 0.36 | 28 | 1011.2 |
| 20260505222519 | 23 | 213 | 6.4 | 22.5 | 0.00 | 0.76 | 0.36 | 28 | 1011.3 |
| 20260505222015 | 23 | 256 | 8.0 | 35.4 | 0.00 | 0.76 | 0.36 | 30 | 1011.3 |
| 20260505221531 | 23 | 213 | 19.3 | 35.4 | 0.00 | 0.76 | 0.36 | 28 | 1011.3 |
| 20260505221026 | 23 | 273 | 11.3 | 30.6 | 0.00 | 0.76 | 0.36 | 30 | 1011.3 |
| 20260505220522 | 25 | 257 | 14.5 | 30.6 | 0.00 | 0.76 | 0.36 | 27 | 1011.5 |
| 20260505220034 | 24 | 292 | 16.1 | 27.4 | 0.00 | 0.76 | 0.36 | 29 | 1011.4 |
| 20260505215515 | 23 | 208 | 12.9 | 25.7 | 0.00 | 0.76 | 0.36 | 30 | 1011.4 |
| 20260505215031 | 22 | 220 | 9.7 | 25.7 | 0.00 | 0.76 | 0.36 | 31 | 1011.7 |
| 20260505214527 | 23 | 234 | 8.0 | 24.1 | 0.00 | 0.76 | 0.36 | 30 | 1011.9 |
| 20260505214022 | 23 | 127 | 8.0 | 24.1 | 0.00 | 0.76 | 0.36 | 29 | 1011.9 |
| 20260505213518 | 24 | 228 | 9.7 | 25.7 | 0.00 | 0.76 | 0.36 | 29 | 1011.9 |
| 20260505213014 | 24 | 233 | 12.9 | 25.7 | 0.00 | 0.76 | 0.36 | 29 | 1012.1 |
| 20260505212513 | 24 | 204 | 8.0 | 27.4 | 0.00 | 0.76 | 0.36 | 30 | 1012.2 |
| 20260505212029 | 23 | 246 | 16.1 | 29.0 | 0.00 | 0.76 | 0.36 | 30 | 1012.1 |
| 20260505211524 | 24 | 206 | 17.7 | 30.6 | 0.00 | 0.76 | 0.36 | 29 | 1012.3 |
| 20260505211020 | 24 | 227 | 20.9 | 30.6 | 0.00 | 0.76 | 0.36 | 27 | 1012.4 |
| 20260505210516 | 25 | 235 | 11.3 | 32.2 | 0.00 | 0.76 | 0.36 | 29 | 1012.1 |
| 20260505210044 | 23 | 229 | 17.7 | 32.2 | 0.00 | 0.76 | 0.36 | 30 | 1012.3 |
| 20260505205525 | 23 | 250 | 12.9 | 32.2 | 0.00 | 0.76 | 0.36 | 30 | 1012.3 |
| 20260505205025 | 23 | 204 | 12.9 | 35.4 | 0.00 | 0.76 | 0.36 | 29 | 1012.4 |
| 20260505204521 | 24 | 246 | 16.1 | 35.4 | 0.00 | 0.76 | 0.36 | 29 | 1012.4 |
| 20260505204017 | 24 | 239 | 16.1 | 32.2 | 0.00 | 0.76 | 0.36 | 28 | 1012.4 |
| 20260505203513 | 24 | 257 | 17.7 | 33.8 | 0.00 | 0.76 | 0.36 | 29 | 1012.4 |
| 20260505203029 | 24 | 281 | 17.7 | 35.4 | 0.00 | 0.76 | 0.36 | 29 | 1012.4 |
| 20260505202525 | 23 | 244 | 17.7 | 35.4 | 0.00 | 0.76 | 0.36 | 28 | 1012.3 |
| 20260505202020 | 24 | 276 | 11.3 | 40.2 | 0.00 | 0.76 | 0.36 | 27 | 1012.3 |
| 20260505201520 | 24 | 242 | 17.7 | 41.8 | 0.00 | 0.76 | 0.36 | 27 | 1012.4 |
| 20260505201016 | 23 | 280 | 24.1 | 41.8 | 0.00 | 0.76 | 0.36 | 29 | 1012.4 |
| 20260505200532 | 23 | 279 | 20.9 | 38.6 | 0.00 | 0.76 | 0.36 | 29 | 1012.3 |
| 20260505200039 | 23 | 269 | 22.5 | 38.6 | 0.00 | 0.76 | 0.36 | 30 | 1012.4 |
| 20260505195519 | 23 | 280 | 16.1 | 38.6 | 0.00 | 0.76 | 0.36 | 31 | 1012.4 |
| 20260505195015 | 24 | 213 | 16.1 | 41.8 | 0.00 | 0.76 | 0.36 | 33 | 1012.5 |
| 20260505194531 | 23 | 210 | 17.7 | 41.8 | 0.00 | 0.76 | 0.36 | 33 | 1012.5 |
| 20260505194026 | 23 | 252 | 22.5 | 38.6 | 0.00 | 0.76 | 0.36 | 35 | 1012.5 |
| 20260505193526 | 23 | 217 | 16.1 | 33.8 | 0.00 | 0.76 | 0.36 | 36 | 1012.6 |
| 20260505193022 | 23 | 327 | 17.7 | 29.0 | 0.00 | 0.76 | 0.36 | 36 | 1012.6 |
| 20260505192518 | 23 | 238 | 16.1 | 30.6 | 0.00 | 0.76 | 0.36 | 40 | 1012.6 |
| 20260505192013 | 23 | 229 | 11.3 | 33.8 | 0.00 | 0.76 | 0.36 | 40 | 1012.7 |
| 20260505191528 | 22 | 236 | 16.1 | 33.8 | 0.00 | 0.76 | 0.36 | 43 | 1012.7 |
| 20260505191024 | 23 | 242 | 14.5 | 32.2 | 0.00 | 0.76 | 0.36 | 43 | 1012.7 |
| 20260505190520 | 23 | 222 | 17.7 | 29.0 | 0.00 | 0.76 | 0.36 | 41 | 1012.9 |
| 20260505190031 | 22 | 231 | 16.1 | 27.4 | 0.00 | 0.76 | 0.36 | 43 | 1012.9 |
| 20260505185513 | 23 | 238 | 14.5 | 27.4 | 0.00 | 0.76 | 0.36 | 43 | 1013.0 |
| 20260505185028 | 22 | 251 | 11.3 | 27.4 | 0.00 | 0.76 | 0.36 | 45 | 1013.0 |
| 20260505184524 | 22 | 250 | 12.9 | 24.1 | 0.00 | 0.76 | 0.36 | 46 | 1013.1 |
| 20260505184020 | 22 | 265 | 6.4 | 16.1 | 0.00 | 0.76 | 0.36 | 50 | 1013.2 |
| 20260505183516 | 22 | 243 | 4.8 | 22.5 | 0.00 | 0.76 | 0.36 | 50 | 1013.4 |
| 20260505183032 | 21 | 194 | 6.4 | 22.5 | 0.00 | 0.76 | 0.36 | 49 | 1013.2 |
| 20260505182512 | 22 | 204 | 6.4 | 20.9 | 0.00 | 0.76 | 0.36 | 49 | 1013.5 |
| 20260505182028 | 21 | 111 | 4.8 | 19.3 | 0.00 | 0.76 | 0.36 | 52 | 1013.5 |
| 20260505181524 | 21 | 200 | 8.0 | 16.1 | 0.00 | 0.76 | 0.36 | 51 | 1013.5 |
| 20260505181020 | 21 | 76 | 3.2 | 8.0 | 0.00 | 0.76 | 0.36 | 51 | 1013.7 |
| 20260505180516 | 21 | 235 | 0.0 | 12.9 | 0.00 | 0.76 | 0.36 | 54 | 1013.9 |
| 20260505180044 | 21 | 232 | 3.2 | 12.9 | 0.00 | 0.76 | 0.36 | 56 | 1014.0 |
| 20260505175525 | 20 | 250 | 3.2 | 8.0 | 0.00 | 0.76 | 0.36 | 56 | 1014.0 |
| 20260505175025 | 19 | 196 | 1.6 | 6.4 | 0.00 | 0.76 | 0.36 | 57 | 1014.1 |
| 20260505174521 | 19 | 148 | 3.2 | 6.4 | 0.00 | 0.76 | 0.36 | 59 | 1014.0 |
| 20260505174017 | 18 | 148 | 1.6 | 9.7 | 0.00 | 0.76 | 0.36 | 61 | 1014.1 |
| 20260505173512 | 18 | 112 | 6.4 | 11.3 | 0.00 | 0.76 | 0.36 | 60 | 1014.0 |
| 20260505173028 | 19 | 100 | 1.6 | 6.4 | 0.00 | 0.76 | 0.36 | 61 | 1014.1 |
| 20260505172524 | 19 | 262 | 3.2 | 6.4 | 0.00 | 0.76 | 0.36 | 59 | 1014.2 |
| 20260505172020 | 19 | 281 | 0.0 | 4.8 | 0.00 | 0.76 | 0.36 | 62 | 1014.1 |
| 20260505171519 | 19 | 281 | 3.2 | 11.3 | 0.00 | 0.76 | 0.36 | 61 | 1014.2 |
| 20260505171015 | 19 | 279 | 4.8 | 11.3 | 0.00 | 0.76 | 0.36 | 62 | 1014.1 |
| 20260505170530 | 19 | 358 | 0.0 | 6.4 | 0.00 | 0.76 | 0.36 | 63 | 1014.1 |
| 20260505170038 | 18 | 358 | 1.6 | 6.4 | 0.00 | 0.76 | 0.36 | 62 | 1014.0 |
| 20260505165519 | 18 | 41 | 0.0 | 3.2 | 0.00 | 0.76 | 0.36 | 64 | 1014.0 |
| 20260505165015 | 18 | 41 | 0.0 | 4.8 | 0.00 | 0.76 | 0.36 | 65 | 1014.0 |
| 20260505164531 | 17 | 42 | 3.2 | 6.4 | 0.00 | 0.76 | 0.36 | 67 | 1014.2 |
| 20260505164027 | 18 | 66 | 1.6 | 6.4 | 0.00 | 0.76 | 0.36 | 70 | 1014.1 |
| 20260505163602 | 18 | 35 | 3.2 | 6.4 | 0.00 | 0.76 | 0.36 | 70 | 1014.0 |
| 20260505163018 | 17 | 14 | 3.2 | 6.4 | 0.00 | 0.76 | 0.36 | 70 | 1013.9 |
| 20260505162514 | 17 | 337 | 3.2 | 4.8 | 0.00 | 0.76 | 0.36 | 72 | 1013.9 |
| 20260505162030 | 17 | 330 | 0.0 | 4.8 | 0.00 | 0.76 | 0.36 | 72 | 1014.1 |
| 20260505161526 | 17 | 330 | 3.2 | 4.8 | 0.00 | 0.76 | 0.36 | 73 | 1014.1 |
| 20260505161022 | 17 | 326 | 0.0 | 4.8 | 0.00 | 0.76 | 0.36 | 73 | 1014.2 |
| 20260505160518 | 17 | 326 | 3.2 | 6.4 | 0.00 | 0.76 | 0.36 | 74 | 1014.2 |
| 20260505153031 | 17 | 263 | 0.0 | 6.4 | 0.00 | 0.76 | 0.36 | 78 | 1014.0 |
| 20260505152527 | 17 | 261 | 0.0 | 6.4 | 0.00 | 0.76 | 0.36 | 79 | 1014.0 |
| 20260505152028 | 17 | 254 | 0.0 | 6.4 | 0.00 | 0.76 | 0.36 | 82 | 1014.0 |
| 20260505151523 | 17 | 254 | 1.6 | 6.4 | 0.00 | 0.76 | 0.36 | 83 | 1013.9 |
| 20260505151019 | 16 | 251 | 1.6 | 6.4 | 0.00 | 0.76 | 0.36 | 83 | 1013.9 |
| 20260505150515 | 16 | 235 | 0.0 | 4.8 | 0.00 | 0.76 | 0.36 | 85 | 1014.0 |
| 20260505140531 | 15 | 114 | 0.0 | 1.6 | 0.00 | 0.76 | 0.36 | 91 | 1013.8 |
| 20260505125032 | 15 | 113 | 0.0 | 1.6 | 0.00 | 0.76 | 0.36 | 92 | 1012.8 |
| 20260505124528 | 15 | 113 | 0.0 | 1.6 | 0.00 | 0.76 | 0.36 | 91 | 1012.9 |
| 20260505124023 | 15 | 113 | 0.0 | 3.2 | 0.03 | 0.76 | 0.36 | 91 | 1012.8 |
| 20260505123519 | 15 | 113 | 0.0 | 3.2 | 0.03 | 0.76 | 0.36 | 91 | 1012.7 |
| 20260505123015 | 15 | 113 | 0.0 | 3.2 | 0.05 | 0.76 | 0.36 | 91 | 1012.7 |
| 20260505122531 | 14 | 113 | 1.6 | 3.2 | 0.05 | 0.76 | 0.36 | 91 | 1012.6 |
| 20260505122031 | 15 | 113 | 0.0 | 1.6 | 0.05 | 0.76 | 0.36 | 91 | 1012.5 |
| 20260505121527 | 15 | 113 | 0.0 | 1.6 | 0.05 | 0.76 | 0.36 | 91 | 1012.6 |
| 20260505121024 | 14 | 113 | 0.0 | 1.6 | 0.05 | 0.76 | 0.36 | 91 | 1012.8 |
| 20260505120519 | 14 | 113 | 0.0 | 4.8 | 0.05 | 0.76 | 0.36 | 91 | 1012.4 |
| 20260505120028 | 14 | 113 | 1.6 | 6.4 | 0.05 | 0.76 | 0.36 | 91 | 1012.3 |
| 20260505115529 | 14 | 113 | 1.6 | 6.4 | 0.05 | 0.76 | 0.36 | 91 | 1012.5 |
| 20260505115025 | 15 | 113 | 0.0 | 6.4 | 0.05 | 0.76 | 0.36 | 91 | 1012.5 |
| 20260505114525 | 15 | 113 | 1.6 | 6.4 | 0.05 | 0.76 | 0.36 | 91 | 1012.3 |
| 20260505114021 | 15 | 110 | 3.2 | 4.8 | 0.03 | 0.74 | 0.33 | 91 | 1012.4 |
| 20260505113516 | 15 | 110 | 1.6 | 4.8 | 0.03 | 0.74 | 0.33 | 91 | 1012.3 |
| 20260505113012 | 15 | 110 | 1.6 | 8.0 | 0.00 | 0.71 | 0.30 | 91 | 1012.4 |
| 20260505112528 | 15 | 120 | 3.2 | 8.0 | 0.00 | 0.71 | 0.30 | 91 | 1012.5 |
| 20260505112024 | 15 | 117 | 3.2 | 8.0 | 0.00 | 0.71 | 0.30 | 92 | 1012.9 |
| 20260505111520 | 15 | 116 | 1.6 | 4.8 | 0.00 | 0.71 | 0.30 | 92 | 1012.7 |
| 20260505111019 | 15 | 116 | 1.6 | 4.8 | 0.03 | 0.71 | 0.30 | 92 | 1012.8 |
| 20260505110515 | 15 | 116 | 1.6 | 4.8 | 0.03 | 0.71 | 0.30 | 92 | 1012.8 |
| 20260505102019 | 14 | 91 | 3.2 | 8.0 | 0.05 | 0.71 | 0.30 | 91 | 1013.0 |
| 20260505101515 | 14 | 126 | 3.2 | 6.4 | 0.08 | 0.71 | 0.30 | 91 | 1013.4 |
| 20260505101031 | 14 | 127 | 0.0 | 6.4 | 0.05 | 0.69 | 0.28 | 91 | 1013.7 |
| 20260505100527 | 14 | 129 | 1.6 | 9.7 | 0.05 | 0.69 | 0.28 | 91 | 1014.0 |
| 20260505100036 | 14 | 129 | 4.8 | 9.7 | 0.05 | 0.69 | 0.28 | 91 | 1014.0 |
| 20260505095521 | 14 | 110 | 6.4 | 14.5 | 0.05 | 0.69 | 0.28 | 91 | 1013.8 |
| 20260505095017 | 14 | 101 | 4.8 | 14.5 | 0.05 | 0.69 | 0.28 | 91 | 1013.8 |
| 20260505094513 | 14 | 98 | 6.4 | 11.3 | 0.08 | 0.69 | 0.28 | 91 | 1014.0 |
| 20260505094029 | 14 | 83 | 4.8 | 11.3 | 0.08 | 0.69 | 0.28 | 91 | 1014.0 |
| 20260505093525 | 15 | 88 | 4.8 | 6.4 | 0.08 | 0.69 | 0.28 | 91 | 1014.0 |
| 20260505093020 | 15 | 88 | 1.6 | 8.0 | 0.08 | 0.69 | 0.28 | 91 | 1014.1 |
| 20260505092516 | 15 | 94 | 4.8 | 9.7 | 0.05 | 0.66 | 0.25 | 91 | 1014.2 |
| 20260505092016 | 15 | 98 | 6.4 | 17.7 | 0.08 | 0.66 | 0.25 | 91 | 1014.1 |
| 20260505091512 | 15 | 108 | 9.7 | 19.3 | 0.05 | 0.64 | 0.23 | 91 | 1014.3 |
| 20260505091027 | 15 | 92 | 8.0 | 20.9 | 0.05 | 0.64 | 0.23 | 91 | 1014.1 |
| 20260505090524 | 15 | 111 | 11.3 | 20.9 | 0.05 | 0.64 | 0.23 | 90 | 1014.1 |
| 20260505090030 | 15 | 150 | 11.3 | 19.3 | 0.08 | 0.64 | 0.23 | 90 | 1014.2 |
| 20260505085513 | 15 | 109 | 11.3 | 17.7 | 0.08 | 0.64 | 0.23 | 91 | 1014.1 |
| 20260505085028 | 15 | 92 | 6.4 | 16.1 | 0.05 | 0.61 | 0.20 | 91 | 1014.4 |
| 20260505084528 | 15 | 108 | 6.4 | 16.1 | 0.08 | 0.61 | 0.20 | 91 | 1014.6 |
| 20260505084024 | 15 | 114 | 6.4 | 14.5 | 0.10 | 0.61 | 0.20 | 91 | 1014.7 |
| 20260505083519 | 15 | 119 | 8.0 | 14.5 | 0.10 | 0.61 | 0.20 | 91 | 1014.7 |
| 20260505083015 | 15 | 114 | 6.4 | 12.9 | 0.13 | 0.61 | 0.20 | 91 | 1015.0 |
| 20260505082530 | 15 | 98 | 6.4 | 12.9 | 0.15 | 0.61 | 0.20 | 91 | 1015.3 |
| 20260505082026 | 15 | 100 | 6.4 | 9.7 | 0.13 | 0.58 | 0.18 | 91 | 1015.6 |
| 20260505081522 | 15 | 119 | 3.2 | 9.7 | 0.15 | 0.58 | 0.18 | 91 | 1015.8 |
| 20260505081022 | 15 | 177 | 3.2 | 14.5 | 0.15 | 0.58 | 0.18 | 91 | 1015.8 |
| 20260505080517 | 15 | 85 | 6.4 | 14.5 | 0.15 | 0.58 | 0.18 | 92 | 1015.7 |
| 20260505080045 | 15 | 90 | 6.4 | 12.9 | 0.15 | 0.56 | 0.15 | 92 | 1015.9 |
| 20260505075526 | 15 | 113 | 4.8 | 11.3 | 0.15 | 0.56 | 0.15 | 92 | 1016.2 |
| 20260505075022 | 15 | 127 | 3.2 | 6.4 | 0.15 | 0.56 | 0.15 | 92 | 1016.4 |
| 20260505074518 | 15 | 129 | 3.2 | 6.4 | 0.15 | 0.53 | 0.13 | 92 | 1016.5 |
| 20260505074015 | 15 | 128 | 3.2 | 6.4 | 0.13 | 0.51 | 0.10 | 91 | 1016.5 |
| 20260505073514 | 15 | 137 | 1.6 | 3.2 | 0.15 | 0.51 | 0.10 | 91 | 1016.6 |
| 20260505073030 | 15 | 137 | 1.6 | 3.2 | 0.13 | 0.48 | 0.08 | 91 | 1016.5 |
| 20260505072527 | 15 | 137 | 0.0 | 4.8 | 0.13 | 0.46 | 0.05 | 91 | 1016.7 |
| 20260505072023 | 15 | 137 | 1.6 | 4.8 | 0.13 | 0.46 | 0.05 | 90 | 1016.4 |
| 20260505071519 | 15 | 137 | 1.6 | 4.8 | 0.13 | 0.43 | 0.03 | 90 | 1016.4 |
| 20260505071014 | 15 | 140 | 1.6 | 4.8 | 0.13 | 0.43 | 0.03 | 90 | 1016.5 |
| 20260505070530 | 15 | 142 | 0.0 | 4.8 | 0.15 | 0.43 | 0.03 | 90 | 1016.4 |
| 20260505070037 | 15 | 142 | 1.6 | 4.8 | 0.13 | 0.41 | 0.00 | 90 | 1016.3 |
| 20260505065523 | 15 | 143 | 0.0 | 3.2 | 0.13 | 0.41 | 0.41 | 90 | 1016.2 |
| 20260505065018 | 15 | 143 | 1.6 | 3.2 | 0.15 | 0.41 | 0.41 | 90 | 1016.2 |
| 20260505064514 | 15 | 144 | 1.6 | 3.2 | 0.13 | 0.38 | 0.38 | 90 | 1016.2 |
| 20260505064030 | 15 | 144 | 0.0 | 8.0 | 0.13 | 0.38 | 0.38 | 89 | 1016.4 |
| 20260505063526 | 15 | 144 | 1.6 | 8.0 | 0.10 | 0.36 | 0.36 | 88 | 1016.3 |
| 20260505063021 | 15 | 148 | 4.8 | 6.4 | 0.13 | 0.36 | 0.36 | 88 | 1016.2 |
| 20260505062517 | 15 | 97 | 3.2 | 6.4 | 0.10 | 0.33 | 0.33 | 88 | 1016.3 |
| 20260505062017 | 15 | 85 | 0.0 | 1.6 | 0.13 | 0.33 | 0.33 | 88 | 1016.3 |
| 20260505061513 | 15 | 85 | 0.0 | 1.6 | 0.10 | 0.30 | 0.30 | 89 | 1016.2 |
| 20260505061028 | 15 | 85 | 0.0 | 3.2 | 0.13 | 0.30 | 0.30 | 89 | 1016.2 |
| 20260505060524 | 15 | 85 | 0.0 | 4.8 | 0.10 | 0.28 | 0.28 | 88 | 1016.1 |
| 20260505060033 | 15 | 85 | 1.6 | 6.4 | 0.10 | 0.28 | 0.28 | 88 | 1016.0 |